When you browse on this site, cookies collect data to enhance your experience and personalize the content and advertising you see.
Visit our Privacy Policy to learn more. By continuing to use the site, you agree to this use of cookies and data.
  • In Lithuania
  • List of Countries
  • For 7 days
  • Water Temperature
  • Satellite Maps
  • Weather Map
  • Weather Widgets
  • user-avatar
    Login

    Hourly Weather Glubokoe

    Today, 19 February, Tuesday

    Time Temperature Precipitation Wind Pressure Humidity
    00:00 +2°C° 0 mm 2 mps 752 mmHg 93%
    01:00 +1°C° 0 mm 3 mps 752 mmHg 92%
    02:00 +1°C° 0 mm 3 mps 752 mmHg 92%
    03:00 +1°C° 0 mm 3 mps 751 mmHg 92%
    04:00 +1°C° 0 mm 3 mps 751 mmHg 92%
    05:00 0°C° 0 mm 4 mps 750 mmHg 92%
    06:00 0°C° 0 mm 4 mps 750 mmHg 93%
    07:00 0°C° 0 mm 4 mps 750 mmHg 93%
    08:00 0°C° 0 mm 3 mps 749 mmHg 94%
    09:00 0°C° 0 mm 4 mps 749 mmHg 89%
    10:00 +1°C° 0 mm 4 mps 748 mmHg 84%
    11:00 +4°C° 0 mm 4 mps 748 mmHg 79%
    12:00 +5°C° 0 mm 5 mps 747 mmHg 72%
    13:00 +6°C° 0 mm 5 mps 747 mmHg 65%
    14:00 +10°C° 0 mm 4 mps 746 mmHg 58%
    15:00 +8°C° 0 mm 4 mps 746 mmHg 59%
    16:00 +8°C° 0 mm 4 mps 745 mmHg 60%
    17:00 +8°C° 0 mm 4 mps 745 mmHg 60%
    18:00 +7°C° 0 mm 4 mps 745 mmHg 64%
    19:00 +6°C° 0 mm 4 mps 745 mmHg 68%
    20:00 +5°C° 0 mm 4 mps 745 mmHg 72%
    21:00 +5°C° 0 mm 4 mps 745 mmHg 76%
    22:00 +4°C° 0 mm 4 mps 745 mmHg 80%
    23:00 +4°C° 0 mm 4 mps 745 mmHg 84%

    Tomorrow, 20 February, Wednesday

    Time Temperature Precipitation Wind Pressure Humidity
    00:00 +4°C° 0.2 mm 4 mps 745 mmHg 87%
    01:00 +4°C° 0.2 mm 4 mps 745 mmHg 90%
    02:00 +4°C° 0.2 mm 4 mps 745 mmHg 93%
    03:00 +3°C° 0 mm 4 mps 745 mmHg 93%
    04:00 +3°C° 0 mm 4 mps 745 mmHg 93%
    05:00 +1°C° 0 mm 4 mps 745 mmHg 92%
    06:00 +1°C° 0 mm 5 mps 745 mmHg 91%
    07:00 +1°C° 0 mm 5 mps 745 mmHg 90%
    08:00 +1°C° 0 mm 6 mps 745 mmHg 89%
    09:00 +2°C° 0 mm 6 mps 745 mmHg 84%
    10:00 +2°C° 0 mm 6 mps 746 mmHg 79%
    11:00 +3°C° 0 mm 7 mps 746 mmHg 73%
    12:00 +3°C° 0.1 mm 7 mps 746 mmHg 70%
    13:00 +3°C° 0.1 mm 7 mps 746 mmHg 66%
    14:00 +4°C° 0.1 mm 8 mps 746 mmHg 63%
    15:00 +4°C° 0 mm 7 mps 746 mmHg 63%
    16:00 +3°C° 0 mm 7 mps 746 mmHg 64%
    17:00 +3°C° 0 mm 7 mps 746 mmHg 64%
    18:00 +3°C° 0 mm 7 mps 747 mmHg 67%
    19:00 +3°C° 0 mm 7 mps 747 mmHg 70%
    20:00 +2°C° 0 mm 7 mps 747 mmHg 72%
    21:00 +2°C° 0 mm 7 mps 748 mmHg 73%
    22:00 +2°C° 0 mm 7 mps 748 mmHg 74%
    23:00 +1°C° 0 mm 6 mps 749 mmHg 75%

    Day after tomorrow, 21 February, Thursday

    Time Temperature Precipitation Wind Pressure Humidity
    00:00 -1°C° 0 mm 6 mps 749 mmHg 75%
    01:00 0°C° 0 mm 5 mps 749 mmHg 75%
    02:00 -1°C° 0 mm 4 mps 750 mmHg 75%
    03:00 -2°C° 0 mm 4 mps 750 mmHg 73%
    04:00 -2°C° 0 mm 4 mps 750 mmHg 70%
    05:00 -2°C° 0 mm 4 mps 750 mmHg 68%
    06:00 -2°C° 0 mm 4 mps 750 mmHg 67%
    07:00 -2°C° 0 mm 4 mps 750 mmHg 66%
    08:00 -1°C° 0 mm 3 mps 750 mmHg 65%
    09:00 0°C° 0 mm 3 mps 750 mmHg 62%
    10:00 +1°C° 0 mm 3 mps 750 mmHg 60%
    11:00 +1°C° 0 mm 3 mps 750 mmHg 58%
    12:00 +2°C° 0.1 mm 2 mps 750 mmHg 62%
    13:00 +2°C° 0.1 mm 2 mps 750 mmHg 66%
    14:00 +4°C° 0.1 mm 1 mps 750 mmHg 69%
    15:00 +3°C° 0.4 mm 1 mps 749 mmHg 74%
    16:00 +3°C° 0.4 mm 1 mps 749 mmHg 79%
    17:00 +1°C° 0.4 mm 2 mps 748 mmHg 84%
    18:00 +1°C° 0.4 mm 2 mps 748 mmHg 86%
    19:00 -1°C° 0.4 mm 2 mps 748 mmHg 89%
    20:00 -1°C° 0.4 mm 3 mps 748 mmHg 91%
    21:00 -1°C° 0.2 mm 3 mps 748 mmHg 90%
    22:00 -3°C° 0.2 mm 4 mps 749 mmHg 89%
    23:00 -3°C° 0.2 mm 4 mps 749 mmHg 88%

    22 February, Friday

    Time Temperature Precipitation Wind Pressure Humidity
    00:00 -3°C° 0.4 mm 4 mps 749 mmHg 87%
    01:00 -4°C° 0.4 mm 4 mps 750 mmHg 85%
    02:00 -4°C° 0.4 mm 4 mps 750 mmHg 84%
    03:00 -4°C° 0.1 mm 4 mps 751 mmHg 81%
    04:00 -4°C° 0.1 mm 4 mps 752 mmHg 77%
    05:00 -6°C° 0.1 mm 5 mps 752 mmHg 74%
    06:00 -6°C° 0 mm 5 mps 754 mmHg 72%
    07:00 -7°C° 0 mm 5 mps 755 mmHg 71%
    08:00 -9°C° 0 mm 6 mps 756 mmHg 70%
    09:00 -9°C° 0 mm 6 mps 757 mmHg 66%
    10:00 -9°C° 0 mm 6 mps 758 mmHg 62%
    11:00 -8°C° 0 mm 6 mps 759 mmHg 57%
    12:00 -8°C° 0 mm 6 mps 759 mmHg 54%
    13:00 -6°C° 0 mm 6 mps 760 mmHg 51%
    14:00 -6°C° 0 mm 6 mps 761 mmHg 48%
    15:00 -6°C° 0 mm 5 mps 761 mmHg 48%
    16:00 -6°C° 0 mm 5 mps 761 mmHg 49%
    17:00 -5°C° 0 mm 4 mps 762 mmHg 49%
    18:00 -7°C° 0 mm 4 mps 762 mmHg 51%
    19:00 -7°C° 0 mm 4 mps 763 mmHg 52%
    20:00 -7°C° 0 mm 4 mps 763 mmHg 53%
    21:00 -7°C° 0 mm 4 mps 763 mmHg 53%
    22:00 -8°C° 0 mm 4 mps 763 mmHg 53%
    23:00 -8°C° 0 mm 4 mps 763 mmHg 53%

    23 February, Saturday

    Time Temperature Precipitation Wind Pressure Humidity
    00:00 -8°C° 0 mm 4 mps 763 mmHg 55%
    01:00 -8°C° 0 mm 4 mps 764 mmHg 56%
    02:00 -8°C° 0 mm 4 mps 764 mmHg 57%
    03:00 -8°C° 0 mm 3 mps 764 mmHg 60%
    04:00 -8°C° 0 mm 3 mps 764 mmHg 63%
    05:00 -8°C° 0 mm 3 mps 763 mmHg 65%
    06:00 -8°C° 0 mm 3 mps 764 mmHg 67%
    07:00 -8°C° 0 mm 3 mps 764 mmHg 69%
    08:00 -9°C° 0 mm 3 mps 764 mmHg 72%
    09:00 -8°C° 0 mm 3 mps 764 mmHg 67%
    10:00 -6°C° 0 mm 2 mps 764 mmHg 63%
    11:00 -5°C° 0 mm 2 mps 764 mmHg 58%
    12:00 -5°C° 0 mm 2 mps 763 mmHg 56%
    13:00 -5°C° 0 mm 3 mps 763 mmHg 53%
    14:00 -4°C° 0 mm 3 mps 763 mmHg 51%
    15:00 -3°C° 0 mm 2 mps 763 mmHg 52%
    16:00 -3°C° 0 mm 2 mps 762 mmHg 54%
    17:00 -3°C° 0 mm 2 mps 762 mmHg 56%
    18:00 -3°C° 0 mm 2 mps 762 mmHg 58%
    19:00 -4°C° 0 mm 2 mps 762 mmHg 60%
    20:00 -4°C° 0 mm 2 mps 762 mmHg 63%
    21:00 -4°C° 0 mm 2 mps 761 mmHg 65%
    22:00 -4°C° 0 mm 2 mps 761 mmHg 67%
    23:00 -2°C° 0 mm 1 mps 761 mmHg 69%

    24 February, Sunday

    Time Temperature Precipitation Wind Pressure Humidity
    00:00 -2°C° 0.1 mm 1 mps 761 mmHg 73%
    01:00 -2°C° 0.1 mm 1 mps 760 mmHg 77%
    02:00 -2°C° 0.1 mm 1 mps 760 mmHg 80%
    03:00 -2°C° 0 mm 1 mps 760 mmHg 82%
    04:00 -2°C° 0 mm 1 mps 760 mmHg 83%
    05:00 -2°C° 0 mm 1 mps 760 mmHg 84%
    06:00 -2°C° 0 mm 1 mps 760 mmHg 86%
    07:00 -2°C° 0 mm 1 mps 760 mmHg 87%
    08:00 -3°C° 0 mm 0 mps 760 mmHg 89%
    09:00 -2°C° 0 mm 0 mps 760 mmHg 86%
    10:00 0°C° 0 mm 1 mps 761 mmHg 83%
    11:00 0°C° 0 mm 1 mps 761 mmHg 81%
    12:00 +1°C° 0 mm 1 mps 761 mmHg 79%
    13:00 +1°C° 0 mm 1 mps 761 mmHg 77%
    14:00 +2°C° 0 mm 1 mps 761 mmHg 75%
    15:00 +2°C° 0 mm 1 mps 761 mmHg 77%
    16:00 +1°C° 0 mm 2 mps 761 mmHg 78%
    17:00 +1°C° 0 mm 2 mps 761 mmHg 80%
    18:00 -1°C° 0 mm 2 mps 762 mmHg 82%
    19:00 -1°C° 0 mm 2 mps 762 mmHg 84%
    20:00 -1°C° 0 mm 2 mps 762 mmHg 86%
    21:00 -1°C° 0 mm 2 mps 762 mmHg 86%
    22:00 -2°C° 0 mm 2 mps 762 mmHg 87%
    23:00 -2°C° 0 mm 2 mps 763 mmHg 87%
    Show more